CAPE
1 3 0 0 0 0 0 0 0 0 0 0 0 0 0 0 0 0 0 0 0 0 0 0 0 0 0 0 0 0 0 0 196 286 224 172 236 124 81 49 96 106 0 0
11 0 0 0 1 0 0 0 0 0 0 0 0 0 0 0 0 0 0 0 0 0 0 0 0 0 0 0 0 0 0 0 0 2 71 143 145 90 100 73 100 82 85 65
2 0 0 0 12 1 0 0 0 0 0 2 7 7 0 0 0 0 0 0 0 0 0 0 0 0 0 0 0 0 0 0 0 0 0 0 0 0 0 23 2 0 0 4
17 0 0 0 13 8 0 0 0 0 0 0 4 0 0 0 0 0 0 0 0 0 0 0 0 0 0 0 0 0 0 0 0 0 0 0 0 0 0 0 0 0 0 0
4 1 4 7 20 19 0 0 0 0 3 0 0 1 0 0 0 0 0 0 0 0 0 0 0 0 0 0 0 0 0 0 0 0 0 0 0 0 0 0 0 0 0 0
1 1 10 9 12 2 0 0 0 0 0 0 0 0 0 0 0 0 0 0 0 0 0 0 0 0 0 0 0 0 0 0 0 0 0 0 0 0 0 0 0 0 0 0
2 2 0 0 10 6 0 0 0 0 0 0 0 0 0 0 0 0 0 0 0 0 0 0 0 0 0 0 0 0 0 0 0 0 0 0 0 0 0 0 0 0 0 0
0 0 2 0 0 2 12 0 0 0 0 0 0 0 0 0 0 0 0 0 0 0 0 0 0 0 0 0 0 0 0 0 0 0 0 0 0 0 0 0 0 0 0 0
0 0 0 0 0 0 4 2 0 0 0 0 0 0 0 0 0 0 0 0 0 0 0 0 0 0 0 0 0 0 0 0 0 0 0 0 0 0 0 0 0 0 0 0
0 0 0 0 0 0 0 0 0 0 0 0 0 0 0 0 0 0 0 0 0 0 0 0 0 0 0 0 0 0 0 0 0 0 0 0 0 0 0 0 0 0 0 0
0 0 0 0 0 0 0 0 0 0 0 0 0 0 0 0 0 0 0 0 0 0 0 0 0 0 0 0 0 0 0 0 0 0 0 0 0 0 0 0 0 0 0 0
0 0 0 0 0 0 0 0 0 0 0 0 0 0 0 0 0 0 0 0 0 0 0 0 0 0 0 0 0 0 0 0 0 0 0 0 0 0 0 0 0 0 0 0
0 0 0 0 1 0 0 1 0 0 0 0 0 0 0 0 0 0 0 0 0 0 0 0 0 0 0 0 0 0 0 0 0 0 0 0 0 0 0 0 0 0 0 0
0 0 0 0 0 0 0 0 3 0 0 0 0 0 0 0 0 0 0 0 0 0 0 0 0 0 0 0 0 0 0 0 0 0 0 0 0 0 0 0 0 1 0 0
0 0 0 0 0 0 0 0 0 2 0 0 0 0 0 0 0 0 0 0 0 0 0 0 0 0 0 0 0 0 0 0 0 0 0 0 0 0 0 1 1 0 0 0
0 0 0 0 0 0 0 0 0 0 1 0 0 0 0 0 0 0 0 0 0 0 0 0 0 0 0 0 0 0 0 0 0 0 0 0 0 0 0 1 0 0 0 0
0 0 0 0 0 0 0 0 0 0 0 0 0 0 0 0 0 0 0 0 0 0 0 0 0 0 0 0 0 0 0 0 0 0 0 0 0 0 0 0 0 0 0 0
0 0 0 0 0 0 0 0 0 0 0 0 0 0 0 0 0 0 0 0 0 0 0 0 0 0 0 0 0 0 0 0 0 0 0 0 0 1 1 1 1 0 0 0
0 0 0 0 0 0 0 0 0 0 0 0 0 0 0 0 0 0 0 0 0 0 0 0 0 0 0 0 0 0 0 0 0 0 0 0 0 1 1 1 0 0 0 0
0 0 0 0 0 0 0 0 0 0 0 0 0 0 0 0 0 0 0 0 0 0 0 0 0 0 0 0 0 0 0 0 0 0 0 0 1 1 0 1 0 0 0 0
0 1 0 0 0 0 0 0 0 0 0 0 0 0 0 0 0 0 0 0 0 0 0 0 0 0 0 0 0 0 0 0 0 0 0 1 1 0 1 1 0 0 0 0
0 0 0 0 0 0 0 0 0 0 0 0 0 0 0 0 0 0 0 0 0 0 0 0 0 0 0 0 0 0 0 0 0 0 0 1 0 0 1 0 0 0 0 0
0 0 0 0 0 0 0 0 0 0 0 0 0 0 0 0 0 0 0 0 0 0 0 0 0 0 0 0 0 0 0 0 0 0 1 0 0 0 0 0 0 0 0 0
0 0 0 0 0 0 0 0 0 0 0 0 0 0 0 0 0 0 0 0 0 0 0 0 0 0 0 0 0 0 0 0 0 0 0 0 0 0 0 0 0 0 0 0
0 0 0 0 0 0 0 0 0 0 0 0 0 0 0 0 0 0 0 0 0 0 0 0 0 0 0 0 0 0 0 0 0 0 0 0 0 0 0 0 0 0 0 0
0 0 0 0 0 0 0 0 0 0 0 0 0 0 0 0 0 0 0 0 0 0 0 0 0 0 0 0 0 0 0 0 0 0 0 0 0 0 0 0 0 0 0 0
CIN
0 -13 0 0 0 0 0 0 0 0 0 0 0 0 0 0 0 0 0 0 0 0 0 0 0 0 0 0 0 0 -1 -1 -103 -78 -80 -76 -65 -81 -92 -115 -98 -91 0 0
-2 0 0 0 -1 0 0 0 0 0 0 0 0 0 0 -0 0 0 0 0 0 0 0 0 0 0 0 0 0 0 0 0 0 -6 -77 -69 -79 -88 -91 -103 -91 -86 -78 -72
0 0 0 0 -6 -5 0 0 0 0 0 -9 -19 -3 -2 0 0 0 0 0 0 0 0 0 0 0 0 0 0 0 0 0 0 0 0 0 0 0 0 -37 -2 0 0 -33
-0 0 0 0 -4 -8 0 0 0 0 0 -0 -5 0 0 0 0 0 0 0 0 0 0 0 0 0 0 0 0 0 0 0 0 0 0 0 0 0 0 0 0 0 0 0
-3 0 -0 -0 -3 -12 -1 0 0 0 -11 -1 0 -2 0 0 0 0 0 0 0 0 0 0 0 0 0 0 0 0 0 0 0 0 0 0 0 0 0 0 0 0 0 0
-0 -1 -2 -4 -21 -10 0 0 0 -5 0 0 0 0 0 0 0 0 0 0 0 0 0 0 0 0 0 0 0 0 0 0 0 0 0 0 0 0 0 0 0 0 0 0
0 0 -6 0 -9 -30 0 0 0 0 0 0 0 0 0 0 0 0 0 0 0 0 0 0 0 0 0 0 0 0 0 0 0 0 0 0 0 0 0 0 0 0 0 0
-9 -0 -1 0 -1 -7 -16 -2 0 0 0 0 0 0 0 0 0 0 0 0 0 0 0 0 0 0 0 0 0 0 0 0 0 0 0 0 0 0 0 0 0 0 0 0
0 0 0 0 0 0 -11 -13 0 0 0 0 0 0 0 0 0 0 0 0 0 0 0 0 0 0 0 0 0 0 0 0 0 0 0 0 0 0 0 0 0 0 0 0
0 -1 0 -25 0 0 0 0 -1 0 0 0 0 0 0 0 0 0 0 0 0 0 0 0 0 0 0 0 0 0 0 0 0 0 0 0 0 0 0 0 0 0 0 0
0 0 0 0 0 0 0 0 0 0 0 0 0 0 0 0 0 0 0 0 0 0 0 0 0 0 0 0 0 0 0 0 0 0 0 0 0 0 0 0 0 0 0 0
0 0 0 -0 -6 0 -6 0 0 0 0 0 0 0 0 0 0 0 0 0 0 0 0 0 0 0 0 0 0 0 0 0 0 0 0 0 0 0 0 0 0 0 0 0
0 0 0 -6 -2 0 -0 -7 -2 0 0 0 0 0 0 0 0 0 0 0 0 0 0 0 0 0 0 0 0 0 0 0 0 0 0 0 0 0 0 0 0 0 0 0
0 0 0 0 0 0 0 0 -8 0 -0 0 0 0 0 0 0 0 0 0 0 0 0 0 0 0 0 0 0 0 0 0 0 0 0 0 0 0 0 0 0 0 0 0
0 0 0 0 0 0 0 0 0 -0 0 -0 0 0 0 0 0 0 0 0 0 0 0 0 0 0 0 0 0 0 0 0 0 0 0 0 0 0 0 0 0 0 0 0
0 0 0 0 0 0 0 0 0 -1 0 0 0 0 0 0 0 0 0 0 0 0 0 0 0 0 0 0 0 0 0 0 0 0 0 0 0 0 0 0 0 0 0 0
0 0 0 0 0 0 0 0 0 0 0 0 0 0 0 0 0 0 0 0 0 0 0 0 0 0 0 0 0 0 0 0 0 0 0 0 0 0 0 0 0 0 0 0
0 0 0 0 0 0 0 0 0 0 0 0 0 0 0 0 0 0 0 0 0 0 0 0 0 0 0 0 0 0 0 0 0 0 0 0 0 0 0 0 0 0 0 0
0 0 0 0 0 0 0 0 0 0 0 0 0 0 0 0 0 0 0 0 0 0 0 0 0 0 0 0 0 0 0 0 0 0 0 0 0 0 0 0 0 0 0 0
0 0 0 0 0 0 0 0 0 0 0 0 0 0 0 0 0 0 0 0 0 0 0 0 0 0 0 0 0 0 0 0 0 0 0 0 0 0 0 0 0 0 0 0
0 -3 0 0 0 0 0 0 0 0 0 0 0 0 0 0 0 0 0 0 0 0 0 0 0 0 0 0 0 0 0 0 0 0 0 0 0 0 0 0 0 0 0 0
0 0 0 0 -2 0 0 0 0 0 0 0 0 0 0 0 0 0 0 0 0 0 0 0 0 0 0 0 0 0 0 0 0 0 0 0 0 0 0 0 0 0 0 0
0 0 0 0 0 0 0 0 0 0 0 0 0 0 0 0 0 0 0 0 0 0 0 0 0 0 0 0 0 0 0 0 0 0 0 0 0 0 0 0 0 0 0 0
0 0 0 0 0 0 0 0 0 0 0 0 0 0 0 0 0 0 0 0 0 0 0 0 0 0 0 0 0 0 0 0 0 0 0 0 0 0 0 0 0 0 0 0
0 0 0 0 0 0 0 0 0 0 0 0 0 0 0 0 0 0 0 0 0 0 0 0 0 0 0 0 0 0 0 0 0 0 0 0 0 0 0 0 0 0 0 0
0 0 0 0 0 0 0 0 0 0 0 0 0 0 0 0 0 0 0 0 0 0 0 0 0 0 0 0 0 0 0 0 0 0 0 0 0 0 0 0 0 0 0 0
Wind_Speed
39 32 34 33 28 22 22 24 27 30 29 35 34 34 31 26 37 43 43 38 36 31 25 24 22 21 21 21 21 21 20 21 20 20 21 22 22 22 21 20 20 21 20 19
33 32 32 27 28 26 19 22 26 24 24 31 35 33 37 31 36 37 42 42 38 33 30 27 24 23 22 22 21 21 21 21 22 24 24 24 24 24 25 25 25 25 24 23
32 27 24 27 28 24 23 20 19 22 21 24 30 38 37 41 43 38 37 34 34 36 33 29 27 25 23 23 22 21 22 22 23 24 24 25 26 27 28 27 26 26 27 27
28 24 21 26 27 23 23 20 13 14 21 35 26 42 45 43 46 42 47 37 33 30 29 27 24 23 21 21 20 21 21 23 24 24 25 26 28 29 27 27 27 27 27 28
27 22 24 25 25 19 21 16 15 16 20 25 30 36 38 32 46 51 51 43 38 32 26 24 22 20 19 19 20 20 21 22 23 24 24 25 27 27 28 28 29 28 27 26
25 28 20 21 19 15 13 12 13 16 19 30 28 34 37 37 38 39 39 44 41 34 30 25 21 19 19 20 21 21 22 23 24 24 24 25 26 26 26 26 26 27 25 25
23 26 20 18 21 19 15 14 18 23 25 27 20 30 35 25 27 30 31 31 35 33 29 24 22 20 19 20 21 22 23 24 23 23 23 23 23 23 24 25 25 26 26 27
27 20 20 21 20 20 18 19 18 25 27 25 21 28 27 25 29 31 29 28 26 26 24 22 21 20 19 19 20 21 22 22 22 22 22 22 22 23 23 24 25 26 26 27
22 21 16 16 19 19 21 23 16 14 17 22 22 26 30 30 31 31 30 27 26 22 20 20 19 19 18 19 19 19 19 20 21 22 23 23 23 24 25 25 25 26 26 27
17 16 19 17 17 19 20 17 22 20 23 28 25 26 26 26 26 30 32 29 22 20 20 18 17 18 18 18 18 18 19 20 20 21 22 23 23 23 24 24 26 26 26 26
14 15 20 18 26 25 22 22 21 18 19 23 27 25 14 22 28 31 28 23 18 15 17 18 17 17 17 17 18 19 19 20 21 22 22 23 24 24 24 24 25 25 24 24
16 13 16 22 20 22 25 24 22 23 23 23 25 27 18 27 26 25 21 18 15 15 16 17 16 16 17 17 18 20 20 21 22 22 22 23 23 23 23 24 24 22 23 22
14 12 16 18 24 24 26 27 25 24 24 27 26 23 15 21 21 21 16 12 10 13 16 17 18 18 18 18 19 20 21 21 21 21 21 21 22 22 22 22 21 21 21 20
15 15 17 22 21 21 28 28 27 27 29 28 27 29 28 27 25 22 18 12 11 13 16 17 19 19 18 18 19 20 21 20 19 20 20 21 21 21 21 21 20 20 19 19
18 20 18 21 20 19 23 22 23 24 27 28 29 30 31 34 34 29 20 12 11 12 14 16 18 19 18 18 18 19 20 20 19 19 19 20 20 20 19 18 18 18 17 18
17 18 18 20 21 21 21 19 9 28 34 47 48 46 31 24 26 26 22 12 13 12 12 12 15 18 16 17 18 18 19 19 19 20 20 19 18 18 18 17 17 16 16 15
15 13 17 22 22 24 31 32 20 15 16 16 42 33 26 33 34 34 8 4 7 10 12 15 16 15 17 17 16 17 17 17 18 18 17 18 18 17 17 16 15 14 14 13
17 16 18 21 20 25 23 20 21 17 26 15 38 33 28 30 27 27 19 8 5 9 14 13 15 18 19 18 17 16 16 16 17 18 18 18 17 15 14 14 13 11 11 11
15 15 19 22 22 29 25 21 20 21 26 25 34 36 32 27 24 24 15 10 7 7 13 13 15 14 15 16 16 16 16 16 16 17 18 17 16 14 12 11 10 10 9 10
14 15 18 19 23 25 20 20 19 19 27 21 25 29 26 17 22 24 14 11 11 8 11 10 11 13 11 11 10 10 11 12 13 15 16 14 12 11 10 9 8 8 8 8
15 16 17 20 24 27 24 23 17 23 23 27 26 28 20 16 18 18 11 10 10 10 10 11 10 10 10 9 9 11 12 13 15 14 13 10 9 8 7 6 6 6 7 8
7 12 16 16 21 26 16 17 20 21 25 25 25 22 15 14 14 13 12 12 12 12 12 12 11 14 13 10 10 12 14 13 12 12 11 9 8 7 5 5 5 6 7 8
14 10 12 8 15 17 16 15 19 21 23 22 22 18 13 12 13 12 12 12 12 13 14 14 14 13 12 10 9 11 14 13 12 11 10 9 7 6 5 5 5 6 7 7
18 15 17 17 19 15 10 21 19 20 21 20 17 15 13 13 11 12 12 13 13 14 15 14 14 14 13 11 10 11 10 9 10 11 10 9 7 7 8 8 7 7 7 8
19 15 20 21 25 25 26 20 19 17 16 16 16 15 14 12 14 14 16 16 17 17 17 16 15 12 12 11 13 12 10 9 13 12 11 10 9 9 11 12 9 9 10 9
18 22 21 26 22 21 23 23 17 14 15 14 15 15 16 15 16 18 19 20 21 22 21 20 21 20 17 15 15 12 11 10 10 11 11 11 11 12 14 15 16 16 13 12
Wind_Direction
214 223 218 219 226 244 236 243 241 242 244 239 247 247 250 243 241 249 250 250 253 254 261 265 266 267 271 275 277 280 280 281 284 289 292 292 293 297 299 300 303 306 309 310
215 224 223 223 227 236 239 243 245 251 249 244 245 246 244 245 242 247 247 251 253 255 259 262 265 268 272 275 278 281 284 287 287 287 289 293 295 297 299 301 301 302 303 304
215 228 219 219 223 231 239 241 244 249 251 258 245 245 246 245 244 250 253 256 256 256 257 260 263 266 271 274 278 282 286 289 291 292 293 294 295 296 297 300 302 304 305 304
218 226 218 219 223 234 236 243 249 256 249 243 250 246 243 247 245 249 245 253 257 261 258 260 262 266 270 275 282 286 290 292 294 296 296 296 296 296 300 302 304 305 308 309
214 211 219 220 220 235 240 243 248 262 261 259 253 251 252 253 245 244 242 251 254 257 260 259 261 266 272 278 283 289 293 296 298 298 299 300 300 301 301 301 302 304 308 312
218 214 222 222 222 238 234 239 254 266 268 255 259 253 258 251 253 257 259 253 253 256 257 259 263 267 274 280 284 289 293 296 298 300 302 303 302 303 304 306 307 309 312 315
213 217 227 222 220 235 241 233 248 251 254 258 278 258 260 270 266 266 265 266 257 254 252 252 257 265 274 281 285 289 292 294 299 302 304 306 307 307 307 308 309 310 311 312
214 210 219 229 232 236 236 241 254 251 254 265 277 265 271 281 277 272 271 271 269 256 250 249 255 262 272 282 289 291 292 294 298 302 305 309 310 310 311 312 311 311 312 314
217 224 234 236 239 239 238 244 263 277 283 273 276 280 278 282 277 276 275 272 265 259 247 249 255 263 273 282 289 293 295 297 299 301 303 306 309 309 309 311 313 314 316 316
221 220 234 241 245 248 249 247 254 268 268 266 280 282 283 298 299 286 275 270 267 257 249 251 259 266 272 279 286 293 297 299 301 304 305 307 308 311 313 314 313 314 317 319
237 245 239 243 242 244 248 251 259 270 275 280 280 288 321 318 310 295 282 272 265 251 247 252 262 269 275 280 284 291 295 299 302 304 306 307 308 310 312 313 314 316 322 324
249 263 251 251 267 262 257 257 256 262 273 280 286 285 318 316 313 314 290 279 262 254 253 259 265 271 276 281 286 290 295 299 302 305 307 308 310 312 313 315 318 324 323 327
260 276 264 271 268 265 258 257 261 268 278 276 282 292 318 320 328 334 326 292 267 263 264 268 270 273 279 284 287 291 296 300 304 306 308 310 312 314 315 318 323 326 328 331
271 280 284 276 282 273 263 262 263 263 268 275 275 284 285 299 314 316 320 305 280 271 269 272 276 277 283 288 291 294 296 302 306 308 310 310 311 314 318 322 325 327 331 333
264 275 291 284 291 289 281 271 262 252 258 270 284 280 283 287 293 298 306 299 280 277 275 277 278 281 287 291 294 296 298 301 306 308 311 311 314 318 322 325 327 330 332 334
288 294 293 289 285 287 290 288 246 206 264 235 243 248 289 300 293 294 302 292 274 274 277 280 283 287 290 292 294 297 298 300 303 304 306 312 318 320 321 325 328 332 335 340
306 314 302 284 283 284 271 256 277 276 271 253 247 227 293 278 278 266 284 258 267 274 276 280 285 294 296 294 297 298 301 304 305 308 311 312 314 315 317 322 327 333 339 346
301 301 300 296 296 283 289 298 295 290 282 279 258 277 287 280 278 280 291 284 257 284 289 290 293 294 295 298 301 304 306 307 306 305 308 312 313 316 321 326 331 340 345 349
312 308 298 291 293 283 292 298 296 292 285 280 245 258 278 286 293 293 299 289 282 289 296 300 299 306 305 305 302 302 303 308 310 309 309 309 312 314 322 330 333 339 350 357
311 309 301 301 292 290 303 307 308 307 288 305 298 288 290 296 287 289 297 288 296 308 300 308 311 307 318 322 326 327 322 322 322 317 315 315 315 319 322 330 340 346 2 10
313 306 303 299 295 292 297 303 312 293 296 302 303 300 302 293 292 300 310 302 308 311 312 315 310 314 320 331 336 328 322 320 320 323 327 328 329 327 335 349 351 12 6 4
344 324 311 309 302 296 329 322 305 305 307 308 311 315 308 306 308 308 308 308 308 310 310 310 309 303 312 322 330 324 319 324 328 331 328 326 329 333 351 357 353 356 358 3
316 324 331 337 319 319 333 330 319 315 311 314 317 324 326 319 313 314 309 312 313 311 305 307 308 309 310 319 328 329 321 321 326 325 324 322 323 324 337 342 343 339 346 2
305 310 307 316 314 320 336 312 317 314 316 319 327 333 331 325 324 316 312 310 310 311 304 312 312 312 312 317 318 324 336 341 331 321 317 315 313 314 313 313 320 331 338 344
306 314 304 303 300 303 303 314 315 316 319 325 323 320 324 323 315 313 309 307 307 307 302 305 310 315 318 317 313 317 326 330 320 314 309 302 300 301 300 299 307 315 322 333
306 300 301 297 307 307 307 308 320 320 318 321 318 317 317 317 311 305 304 303 298 296 299 301 298 302 310 312 311 313 312 318 320 316 307 299 294 292 294 293 296 304 314 323